Total_Precipitation_Accumulation
1.33 1.53 1.81 2.24 2.64 3.08 3.44 3.34 2.63 2.06 1.73 1.44 1.08 0.91 0.89 0.80 0.71 0.69 0.64 0.61 0.56 0.52 0.47 0.41 0.40 0.37 0.36 0.38 0.40 0.47 0.55 0.59 0.66 0.74 0.71 0.64 0.59 0.58 0.57 0.54 0.51 0.52 0.64
1.42 1.72 2.01 2.16 1.96 1.96 1.96 1.49 1.16 0.95 0.80 0.69 0.52 0.42 0.38 0.36 0.34 0.35 0.35 0.33 0.37 0.40 0.39 0.37 0.36 0.35 0.34 0.33 0.36 0.41 0.44 0.47 0.54 0.60 0.58 0.52 0.50 0.52 0.45 0.51 0.51 0.50 0.66
1.69 1.95 1.85 1.57 1.35 1.23 1.01 0.67 0.50 0.50 0.43 0.35 0.26 0.23 0.21 0.21 0.21 0.22 0.22 0.22 0.23 0.26 0.29 0.33 0.36 0.35 0.31 0.30 0.32 0.34 0.35 0.35 0.38 0.47 0.53 0.47 0.42 0.38 0.39 0.43 0.47 0.53 0.61
1.76 1.60 1.04 0.68 0.60 0.55 0.52 0.54 0.54 0.44 0.33 0.28 0.20 0.15 0.13 0.13 0.13 0.15 0.15 0.17 0.16 0.16 0.18 0.24 0.29 0.30 0.31 0.31 0.25 0.26 0.31 0.31 0.28 0.31 0.39 0.37 0.38 0.42 0.40 0.39 0.45 0.53 0.51
0.90 0.54 0.29 0.19 0.23 0.31 0.48 0.70 0.71 0.50 0.34 0.29 0.24 0.22 0.20 0.18 0.17 0.17 0.18 0.20 0.20 0.20 0.17 0.17 0.22 0.27 0.33 0.38 0.34 0.32 0.30 0.29 0.26 0.26 0.33 0.34 0.30 0.35 0.41 0.39 0.40 0.44 0.38
0.34 0.18 0.13 0.16 0.23 0.27 0.35 0.44 0.53 0.60 0.53 0.47 0.37 0.34 0.33 0.31 0.28 0.26 0.25 0.25 0.26 0.28 0.27 0.27 0.30 0.33 0.33 0.34 0.36 0.39 0.38 0.36 0.33 0.26 0.29 0.42 0.39 0.29 0.34 0.35 0.38 0.39 0.28
0.16 0.18 0.20 0.22 0.20 0.16 0.15 0.17 0.21 0.31 0.37 0.40 0.42 0.42 0.41 0.37 0.32 0.28 0.24 0.27 0.25 0.27 0.29 0.29 0.33 0.37 0.37 0.34 0.32 0.33 0.38 0.45 0.45 0.35 0.27 0.30 0.42 0.37 0.31 0.31 0.30 0.33 0.33
0.05 0.07 0.09 0.08 0.07 0.07 0.08 0.07 0.08 0.09 0.12 0.14 0.18 0.22 0.28 0.27 0.26 0.30 0.24 0.25 0.29 0.29 0.27 0.25 0.25 0.28 0.31 0.32 0.30 0.26 0.27 0.34 0.43 0.45 0.46 0.41 0.35 0.42 0.37 0.31 0.33 0.38 0.43
0.01 0.01 0.02 0.03 0.04 0.03 0.04 0.04 0.04 0.04 0.04 0.05 0.05 0.06 0.11 0.15 0.16 0.17 0.16 0.17 0.24 0.26 0.24 0.22 0.20 0.20 0.23 0.26 0.27 0.26 0.27 0.27 0.28 0.36 0.49 0.51 0.41 0.38 0.39 0.38 0.43 0.56 0.54
0.01 0.00 0.01 0.01 0.01 0.02 0.02 0.03 0.04 0.03 0.03 0.02 0.02 0.02 0.04 0.08 0.10 0.11 0.12 0.15 0.18 0.21 0.20 0.17 0.14 0.14 0.15 0.17 0.22 0.25 0.28 0.33 0.36 0.37 0.43 0.54 0.58 0.51 0.48 0.48 0.53 0.66 0.66
0.00 0.01 0.00 0.00 0.01 0.01 0.01 0.02 0.02 0.02 0.02 0.02 0.01 0.01 0.01 0.02 0.06 0.11 0.15 0.18 0.20 0.20 0.20 0.17 0.15 0.12 0.12 0.15 0.18 0.21 0.27 0.33 0.42 0.51 0.51 0.50 0.62 0.69 0.65 0.63 0.64 0.68 0.74
0.00 0.00 0.00 0.00 0.01 0.01 0.01 0.01 0.01 0.01 0.01 0.00 0.00 0.00 0.00 0.00 0.01 0.03 0.08 0.14 0.20 0.21 0.21 0.20 0.17 0.12 0.10 0.12 0.14 0.16 0.21 0.29 0.39 0.55 0.71 0.71 0.66 0.65 0.64 0.63 0.64 0.70 0.81
0.00 0.00 0.00 0.00 0.00 0.00 0.00 0.00 0.00 0.00 0.00 0.00 0.00 0.00 0.00 0.01 0.01 0.01 0.01 0.04 0.10 0.16 0.19 0.19 0.18 0.16 0.14 0.13 0.11 0.12 0.15 0.19 0.25 0.38 0.61 0.80 0.93 0.85 0.67 0.58 0.56 0.64 0.78
0.00 0.00 0.00 0.00 0.00 0.00 0.00 0.00 0.00 0.00 0.00 0.00 0.00 0.00 0.01 0.02 0.03 0.03 0.03 0.03 0.04 0.09 0.14 0.18 0.20 0.18 0.16 0.14 0.13 0.14 0.15 0.16 0.19 0.26 0.36 0.49 0.69 0.86 0.91 0.78 0.65 0.64 0.71
0.00 0.00 0.00 0.00 0.00 0.00 0.00 0.00 0.00 0.00 0.00 0.01 0.01 0.01 0.01 0.02 0.03 0.04 0.05 0.06 0.07 0.08 0.13 0.19 0.21 0.20 0.18 0.13 0.14 0.17 0.15 0.17 0.18 0.20 0.25 0.28 0.36 0.49 0.64 0.76 0.81 0.78 0.73
0.00 0.00 0.00 0.00 0.00 0.00 0.00 0.00 0.01 0.01 0.01 0.01 0.02 0.02 0.03 0.04 0.05 0.05 0.06 0.07 0.09 0.12 0.15 0.19 0.24 0.24 0.17 0.12 0.11 0.13 0.17 0.21 0.25 0.26 0.26 0.23 0.22 0.25 0.35 0.47 0.61 0.75 0.79
0.01 0.01 0.01 0.00 0.00 0.00 0.01 0.01 0.01 0.01 0.01 0.01 0.02 0.03 0.05 0.06 0.07 0.07 0.09 0.11 0.14 0.17 0.18 0.20 0.27 0.31 0.31 0.21 0.13 0.10 0.15 0.21 0.26 0.32 0.35 0.24 0.15 0.20 0.25 0.31 0.38 0.47 0.57
0.01 0.01 0.01 0.01 0.01 0.01 0.01 0.01 0.01 0.02 0.02 0.02 0.03 0.04 0.06 0.08 0.10 0.12 0.15 0.19 0.22 0.22 0.22 0.22 0.28 0.37 0.37 0.30 0.21 0.14 0.17 0.23 0.27 0.32 0.35 0.33 0.27 0.26 0.27 0.30 0.30 0.32 0.36
0.04 0.04 0.04 0.05 0.05 0.04 0.05 0.04 0.04 0.04 0.04 0.04 0.06 0.08 0.11 0.14 0.17 0.20 0.24 0.27 0.28 0.26 0.25 0.24 0.28 0.36 0.42 0.36 0.25 0.21 0.23 0.26 0.29 0.32 0.36 0.39 0.36 0.27 0.20 0.25 0.26 0.27 0.30
0.05 0.05 0.06 0.06 0.05 0.06 0.06 0.08 0.08 0.08 0.09 0.10 0.12 0.14 0.19 0.25 0.28 0.32 0.36 0.37 0.37 0.32 0.28 0.24 0.27 0.33 0.44 0.43 0.29 0.25 0.27 0.31 0.35 0.45 0.49 0.44 0.39 0.32 0.20 0.22 0.26 0.25 0.25
0.06 0.05 0.04 0.04 0.04 0.06 0.08 0.12 0.14 0.15 0.16 0.17 0.19 0.21 0.27 0.33 0.34 0.37 0.39 0.41 0.40 0.37 0.35 0.31 0.30 0.33 0.38 0.44 0.33 0.29 0.32 0.37 0.45 0.54 0.63 0.60 0.46 0.33 0.24 0.22 0.25 0.22 0.26
0.04 0.03 0.04 0.06 0.07 0.08 0.13 0.17 0.18 0.18 0.19 0.20 0.22 0.25 0.28 0.29 0.28 0.35 0.38 0.41 0.43 0.40 0.37 0.36 0.34 0.36 0.33 0.32 0.35 0.25 0.24 0.33 0.46 0.59 0.76 0.80 0.64 0.48 0.34 0.27 0.24 0.21 0.22
0.02 0.02 0.03 0.05 0.07 0.10 0.16 0.19 0.19 0.19 0.21 0.23 0.25 0.26 0.25 0.26 0.30 0.36 0.37 0.39 0.41 0.39 0.33 0.30 0.34 0.38 0.38 0.33 0.27 0.22 0.17 0.22 0.40 0.56 0.80 0.90 0.77 0.64 0.50 0.40 0.34 0.28 0.24
0.01 0.02 0.03 0.06 0.08 0.09 0.11 0.14 0.17 0.21 0.24 0.25 0.25 0.24 0.26 0.27 0.33 0.40 0.42 0.44 0.42 0.37 0.31 0.28 0.34 0.37 0.39 0.37 0.37 0.35 0.26 0.25 0.37 0.44 0.58 0.73 0.79 0.73 0.67 0.56 0.45 0.36 0.32
0.02 0.03 0.07 0.10 0.11 0.09 0.08 0.09 0.14 0.22 0.30 0.31 0.29 0.27 0.28 0.31 0.33 0.37 0.40 0.37 0.36 0.30 0.28 0.29 0.37 0.40 0.40 0.34 0.30 0.36 0.38 0.38 0.43 0.44 0.56 0.73 0.85 0.87 0.83 0.80 0.68 0.56 0.49
0.05 0.08 0.12 0.13 0.11 0.09 0.08 0.10 0.17 0.27 0.37 0.37 0.31 0.29 0.29 0.33 0.35 0.35 0.36 0.30 0.21 0.19 0.18 0.19 0.24 0.28 0.25 0.18 0.14 0.19 0.24 0.25 0.28 0.34 0.50 0.67 0.83 0.95 0.98 0.99 0.93 0.80 0.68